STARLINK-4109 (53268 NORAD) Tracking and Keplerian Element Data

This shows tracking and keplerian element data for the satellite.

Feedback or suggestion? Click here.




ElementValue
Catalog53268
NameSTARLINK-4109
Epoch Orbit1075
Epoch Day270.25001157
Epoch Year2022
RAAN88.1623
Inclination53.2175
Eccentricity0.0001308
Argument of Perigee59.9344
Mean Anonmoly262.8477
Mean Motion15.21935178
Decay Rate-0.01067438
L11 53268U 22086AC 22270.25001157 -.01067438 00000+0 -50527-1 0 9996
L22 53268 53.2175 88.1623 0001308 59.9344 262.8477 15.21935178 10754

Live tracking and technical data element details for STARLINK-4109 (NORAD 53268). STARLINK-4109 can be tracked NOW for your location showing map with azimuth and elevation plus other details from your city location.

Track the satellite on the map from your city or location and see movement details for azimuth, elevation, latitude, longitude, range, height, and movement on the map or in text.







IsCatalogInMostPopularTable: catalog: 53268, numindb: 3
Update: records affected: 1



GetName: 53268 STARLINK-4109

Hit Count: updated at: Fri, 30 Sep 2022 02:50:55 GMT